Weather in Melnik

Czech Republic     50°21′07″N   14°28′29″E
temp.,
°C
wind,
m/s
gust,
m/s
humid.,
%
clouds,
%
prec.,
mm/h
press.,
hPa
HPBL,
m
19 september, sun
sun1923:00+13nnw378828 0.0 1016449
02:00+10nnw359449 0.1 1016148
05:00+12nnw2486100 0.0 1016357
08:00+12n2583100 0.0 1016261
11:00+15ne335613 0.1 10161213
14:00+17ne335057 0.1 10151548
17:00+16nne334932 0.0 10151440
20:00+12nne366684 0.0 1016228
20 september, mon
mon2023:00+12e136599 0.0 1017217
02:00+12e126792 0.0 1018180
05:00+10ene1272100 0.0 101886
08:00+11ene2467100 0.0 1019343
11:00+12ese235585 0.0 1020671
14:00+15nne114455 0.0 10201726
17:00+15e324572 0.0 10201132
20:00+13ne2456100 0.0 1022152
21 september, tue
tue2123:00+11nnw2363100 0.0 1023175
02:00+10nw246593 0.0 1024170
05:00+9nw256770 0.0 1025181
08:00+8nw246743 0.0 1027146
11:00+13n334616 0.0 10281430
14:00+15nnw3340100 0.0 10271778
17:00+15n334182 0.0 10271699
20:00+10nnw2360100 0.0 102936
22 september, wed
wed2223:00+9nnw2365100 0.0 103060
02:00+8nw227057 0.0 102935
05:00+7wnw2272100 0.0 102921
08:00+8wnw1269100 0.0 102878
11:00+13nw3352100 0.0 1028745
14:00+15nw3448100 0.0 10261446
17:00+16n344874 0.0 10241397
20:00+11ne22675 0.0 102415
23 september, thu
thu2323:00+9sse00745 0.0 102411
02:00+9sw11785 0.0 102212
05:00+8ssw1281100 0.0 102116
08:00+9ssw24755 0.0 1020127
11:00+15wsw4553100 0.0 1017669
14:00+19w4642100 0.0 10151234
17:00+18w6845100 0.0 1013893
20:00+15w3657100 0.0 1013118